(8) Flora
ephemeris date magn radius delta ra dec elong phase
Today21 Oct 202511.82.542 AU3.507 AU14h31m-10°44'12.1°4.7°
Opposition9 Jul 20268.92.263 AU1.246 AU19h15m-21°37'179.2°0.4°
(8) Flora - 2025-10-21
astro.vanbuitenen.nl


 
-1 year
-1 month
-1 day
Now
+1 day
+1 month
+1 year

The interactive orbit chart above shows the body's path through the solar system and its position at the given date. Green and blue lines are shown perpendicular to the ecliptic plane: Green if the path is above the ecliptic plane, blue if it is below. (Left-click and drag to rotate the view; Right-click and drag to move the view; Use scroll wheel to zoom in our out.)

The orbital elements of Flora are:

            e (Eccentricity)                : 0.1564763
            a (Semimajor axis)              : 2.2010413
            i (Inclination)                 : 5.89029
            Ω (Longitude of ascending node) : 110.84542
            ω (Argument of perihelion)      : 285.42157
            M (Mean anomaly)                : 138.54190
            Epoch                           : 2025 May 05

            L (Longitude of perihelion)     : 36.34492
            B (Latitude of perihelion)      : -5.67750
            P (Orbital period in years)     : 3.27            
        

The light curve chart below shows the estimated development of the minor planet's magnitude.


The all-sky chart below shows the path of the minor planet over the same period as the light curve. The current position is marked yellow.





The following chart shows the path of the minor planet in the next few days. The field of view is optimized for (~10x50) binoculars and finderscopes.




Ephemerides:
Date       Time       RA (2000)    DEC (2000)    delta   radius  elong  phase   PA    magn
2025-10-21 00:00 UT   14 31 21.9   -10 44 31     3.507    2.542   12.1    4.7    90   11.8 
2025-10-21 02:42 UT   14 31 33.3   -10 45 31     3.507    2.542   12.0    4.7    90   11.8 
2025-10-22 00:00 UT   14 33 03.1   -10 53 19     3.509    2.542   11.6    4.5    89   11.8 
2025-10-23 00:00 UT   14 34 44.4   -11 02 03     3.511    2.541   11.1    4.3    88   11.7 
2025-10-24 00:00 UT   14 36 26.0   -11 10 45     3.513    2.541   10.5    4.1    86   11.7 
2025-10-25 00:00 UT   14 38 07.7   -11 19 24     3.514    2.541   10.0    3.9    85   11.7 
2025-10-26 00:00 UT   14 39 49.7   -11 27 60     3.516    2.541    9.5    3.7    84   11.7 
2025-10-27 00:00 UT   14 41 31.8   -11 36 33     3.517    2.540    9.0    3.5    82   11.7 
2025-10-28 00:00 UT   14 43 14.2   -11 45 02     3.519    2.540    8.5    3.3    81   11.7 
2025-10-29 00:00 UT   14 44 56.7   -11 53 29     3.520    2.540    8.0    3.1    79   11.7 
2025-10-30 00:00 UT   14 46 39.5   -12 01 53     3.521    2.540    7.5    2.9    77   11.7 
2025-10-31 00:00 UT   14 48 22.4   -12 10 14     3.522    2.539    7.0    2.7    74   11.7 
2025-11-01 00:00 UT   14 50 05.5   -12 18 31     3.522    2.539    6.6    2.6    71   11.6 
2025-11-02 00:00 UT   14 51 48.8   -12 26 45     3.523    2.539    6.1    2.4    68   11.6 
2025-11-03 00:00 UT   14 53 32.2   -12 34 56     3.524    2.538    5.7    2.2    65   11.6 
2025-11-04 00:00 UT   14 55 15.9   -12 43 04     3.524    2.538    5.3    2.1    61   11.6 
2025-11-05 00:00 UT   14 56 59.7   -12 51 08     3.524    2.538    4.9    1.9    56   11.6 
2025-11-06 00:00 UT   14 58 43.7   -12 59 09     3.524    2.537    4.6    1.8    50   11.6 
2025-11-07 00:00 UT   15 00 27.9   -13 07 06     3.524    2.537    4.3    1.7    44   11.6 
2025-11-08 00:00 UT   15 02 12.3   -13 14 60     3.524    2.537    4.1    1.6    37   11.6 
2025-11-09 00:00 UT   15 03 56.9   -13 22 50     3.524    2.536    3.9    1.5    29   11.6 


    Terminology:
            
    delta:  distance between minor planet and earth in AU
    radius: distance between minor planet and sun in AU
    magn:   magnitude (brightness) estimate    
    ra:     right ascension in hours (24h = 360deg)
    dec:    declination in degrees
    elong:  elongation in degrees (angle sun-earth-minor planet)    
    phase:  phase angle in degrees (angle sun-minor planet-earth)        
    AU:     Astronomical Unit (mean distance between earth and sun: 149597870.7 km
    

Orbital elements provided by the MPC (Minor Planet Center).
Calculations by a modified version of AAPlus, a C# implementation of the AA+ project by PJ Naughter from the algorithms presented in the book "Astronomical Algorithms" by Jean Meeus.
NGC2000 dso catalog and star labels from VizieR as provided by the Strasbourg astronomical Data Center.
Tycho2 catalog from the ESO archive.